Flag for U.S.A. Weather past 2 weeks in Shreveport, Louisiana, U.S.A.

Now
88 °F

Scattered clouds.


Feels Like: 93 °F
Forecast: 71 / 91 °F
Wind: 5 mph from Northeast

Location: Shreveport Regional Airport

Current Time: Jul 23, 2014 at 11:27:48 AM

Latest Report: Jul 23, 2014 at 10:56 AM


Visibility: 10 mi

Pressure: 30.07 "Hg

Humidity: 55%

Dew point: 70 °F

Location of ShreveportLocation

Historic Weather in Shreveport — Graph

°F

Shreveport temperature yesterday

Maximum temperature yesterday: 88 °F (at 6:56 PM)
Minimum temperature yesterday: 69 °F (at 4:56 AM)
Average temperature yesterday: 77 °F

Past Weeks' High & Low Weather Summary

 TemperatureHumidityPressure
High98 °F (Jul 13, 3:56 PM)94% (Jul 13, 5:56 AM)30.14 "Hg (Jul 13, 5:56 AM)
Low65 °F (Jul 21, 3:56 AM)33% (Jul 13, 3:56 PM)29.88 "Hg (Jul 14, 5:56 PM)
Average79 °F72%30.01 "Hg
* Reported Jul 8 9:56 AM — Jul 23 9:56 AM, Shreveport, Weather by CustomWeather, © 2014

Note: Actual official high and low records may vary slightly from our data, if they occured in-between our weather recording intervals... More about our weather records

Advertising

Shreveport weather history for previous 24 hours

 ConditionsComfort  
Time TempWeatherWind HumidityBarometerVisibility
9:56 AM
Jul 23
86 °FPassing clouds.No wind61%30.08 "Hg10 mi
8:56 AM81 °FSunny.No wind77%30.07 "Hg9 mi
7:56 AM78 °FSunny.No wind84%30.06 "Hg8 mi
6:56 AM72 °FFog.No wind93%30.06 "Hg6 mi
5:56 AM72 °FClear.No wind91%30.05 "Hg9 mi
4:56 AM72 °FClear.No wind93%30.05 "Hg10 mi
3:56 AM73 °FClear.No wind90%30.03 "Hg10 mi
2:56 AM73 °FClear.No wind90%30.03 "Hg10 mi
12:56 AM74 °FPassing clouds.No wind88%30.04 "Hg10 mi
11:56 PM
Jul 22
76 °FPassing clouds.No wind82%30.03 "Hg10 mi
10:56 PM76 °FPassing clouds.No wind82%30.03 "Hg10 mi
9:56 PM78 °FPassing clouds.No wind76%30.02 "Hg10 mi
8:56 PM79 °FScattered clouds.No wind74%30.02 "Hg10 mi
7:56 PM86 °FPartly sunny.6 mph55%30.01 "Hg10 mi
6:56 PM88 °FScattered clouds.5 mph52%30.01 "Hg10 mi
11:56 AM84 °FScattered clouds.No wind57%30.06 "Hg10 mi
Weather by CustomWeather, © 2014

See weather overviewHow to use our weather pages